Temperature
21 21 20 20 19 19 20 21 22 23 23 23 24 24 24 23 23 21 20 21 22 21 21 21 21 21 20 20 20 20 20 19 19 19 19 19 19 19 19 19 19 19 19 19 19 19 19 19 19
21 21 20 19 19 20 21 22 22 23 23 23 23 23 23 22 20 19 20 21 22 21 21 21 21 20 20 20 20 20 20 19 19 19 19 19 19 19 19 19 19 19 19 19 20 20 19 19 19
21 21 20 19 20 21 22 23 23 23 23 23 22 23 23 22 20 20 21 21 22 21 21 21 21 20 20 20 20 20 19 19 19 19 19 19 19 19 19 19 19 19 19 19 19 19 19 19 19
21 21 20 19 21 23 24 24 24 23 23 22 22 22 22 22 21 21 21 21 22 21 21 21 21 20 20 20 20 20 20 19 19 19 19 19 19 19 19 19 19 19 19 19 19 19 19 19 19
21 21 19 19 22 24 25 26 25 24 23 21 21 21 21 22 22 22 21 21 22 21 21 21 21 20 20 20 20 20 20 19 19 19 19 19 19 19 19 19 19 19 19 19 19 19 19 19 19
21 20 20 20 23 26 26 26 24 23 21 20 21 21 20 20 21 21 21 21 22 21 21 21 20 20 20 20 20 20 20 20 19 19 19 19 19 19 18 18 18 18 19 19 19 19 19 19 19
22 20 21 22 24 25 26 25 23 22 21 20 20 20 20 20 20 21 21 21 21 21 21 21 20 20 20 20 20 20 20 20 19 19 19 19 18 18 18 18 18 18 18 18 18 18 19 19 19
23 20 21 22 24 25 25 24 22 21 20 20 20 20 19 20 20 20 21 21 21 21 21 20 20 20 20 20 20 20 20 19 19 19 19 18 18 18 18 18 18 18 18 18 18 18 18 18 18
24 21 20 22 24 25 25 23 21 21 20 19 20 20 20 20 20 20 20 20 20 20 20 20 20 20 20 20 19 19 19 19 19 19 18 18 18 18 18 18 18 18 18 18 18 18 18 18 18
24 20 22 25 26 25 25 23 21 20 19 18 19 20 20 20 20 20 20 20 20 20 20 20 20 20 20 19 19 19 19 19 18 18 18 18 18 18 18 18 17 17 18 18 17 17 17 17 18
24 23 25 26 27 26 24 22 21 20 18 19 19 20 21 20 20 20 20 20 20 20 20 19 20 19 19 19 19 19 19 19 18 18 18 18 18 17 17 17 17 17 17 17 17 17 17 17 17
25 26 27 27 27 25 23 22 20 20 20 20 20 20 20 20 20 20 20 20 20 20 20 19 19 19 19 19 19 19 19 18 18 18 18 18 17 17 17 17 17 17 17 17 17 17 17 17 17
26 26 27 26 25 24 22 21 20 19 20 19 19 19 20 20 20 20 20 20 20 20 19 19 19 19 19 19 18 18 18 18 18 18 18 17 17 17 17 17 17 16 16 16 16 16 16 16 16
26 27 26 25 25 23 22 20 19 18 19 19 19 19 20 20 20 20 20 20 20 20 19 19 19 19 19 19 19 18 18 18 18 18 17 17 17 17 17 16 16 16 16 16 16 16 16 16 16
27 25 24 24 24 23 22 20 19 19 19 19 19 19 20 20 20 20 20 20 20 20 20 19 19 19 19 19 19 18 18 18 18 17 17 17 17 17 16 16 16 16 15 15 15 15 15 15 15
25 23 23 24 23 23 22 20 19 19 19 19 19 19 19 20 20 20 20 20 20 20 19 19 19 19 19 19 18 18 18 18 17 17 17 17 16 16 16 16 15 15 15 15 15 15 15 15 15
22 22 23 23 23 23 21 20 19 19 19 19 19 19 19 19 19 19 20 20 20 20 19 19 19 19 19 18 18 18 18 17 17 17 16 16 16 16 16 15 15 15 14 14 14 14 14 14 14
22 23 23 23 23 23 21 19 19 19 19 18 18 19 19 19 19 19 19 19 19 19 19 19 19 18 18 18 18 17 17 17 17 16 16 16 16 16 15 15 15 14 14 14 14 14 14 14 14
25 24 24 24 24 22 20 20 19 19 18 18 18 18 18 19 19 19 19 19 19 19 19 19 18 18 18 18 18 17 17 17 16 16 16 16 15 15 15 15 14 14 13 13 13 13 13 13 13
26 25 24 23 23 21 20 20 19 19 18 18 18 18 18 18 19 19 19 19 19 19 19 18 18 18 18 18 18 17 17 16 16 16 15 15 15 15 14 14 14 13 13 13 13 13 13 13 13
25 24 24 23 22 21 20 19 19 19 18 18 18 19 19 19 19 19 19 19 19 19 19 19 19 18 18 18 17 17 16 16 16 15 15 15 15 14 14 14 13 13 13 13 12 12 12 12 12
24 25 25 23 21 19 20 18 19 18 18 18 18 18 19 19 19 19 19 19 19 19 19 19 19 18 18 18 17 17 16 16 16 15 15 15 14 14 14 13 13 13 13 12 12 12 12 12 12
24 24 23 21 19 18 18 18 18 18 18 18 19 19 19 19 19 19 19 20 19 19 19 19 19 18 18 17 17 17 16 16 15 15 15 14 14 14 13 13 13 13 12 12 12 12 12 12 12
25 22 20 18 17 18 18 18 18 18 19 19 19 20 20 20 20 20 20 20 20 19 19 19 19 18 18 17 17 17 16 16 15 15 14 14 14 13 13 13 13 13 12 12 12 12 11 11 11
24 21 19 19 17 18 18 19 18 20 20 20 20 20 21 21 20 20 20 20 20 20 20 19 19 19 18 18 17 17 16 16 15 15 14 14 13 13 13 13 13 12 12 12 12 11 11 11 11
23 21 20 20 19 18 19 19 19 22 22 22 22 21 21 21 21 21 21 21 20 20 20 20 19 19 18 18 17 17 16 16 15 15 14 14 14 13 13 13 13 12 12 12 12 11 11 11 11
23 21 20 18 18 18 18 19 20 22 22 22 22 22 21 21 21 21 21 21 21 21 20 20 19 19 18 18 17 16 16 16 15 15 14 14 13 13 13 13 12 12 12 12 12 11 11 11 11
23 22 19 18 18 18 19 19 19 21 21 21 21 22 22 22 22 22 22 22 21 21 21 20 20 19 18 18 17 17 16 16 15 15 14 14 14 13 13 13 12 12 12 12 11 11 11 11 11
23 22 19 17 18 18 18 19 20 20 21 21 21 23 23 23 23 23 22 22 22 21 21 20 20 19 18 18 17 17 16 16 15 15 15 14 14 13 13 13 12 12 12 12 11 11 11 11 11
23 22 19 19 19 18 18 19 22 21 21 21 22 23 24 24 24 23 23 22 22 21 21 20 20 19 19 18 18 17 17 16 16 15 15 14 14 13 13 13 12 12 12 12 11 11 11 11 11
Wind_Speed
10 7 2 1 3 3 1 3 3 5 6 5 4 5 5 5 4 6 7 17 20 16 17 20 21 21 21 21 20 19 19 19 18 17 17 16 15 15 14 13 13 13 12 12 11 11 11 11 11
7 4 1 2 2 1 4 4 5 4 2 3 7 7 6 8 10 11 9 17 19 17 17 19 21 21 21 21 20 19 19 18 17 17 16 15 14 13 13 12 12 12 11 11 10 10 10 9 9
5 4 2 1 2 4 5 6 7 2 3 5 5 6 5 6 10 6 12 19 16 14 17 20 22 21 21 20 20 19 18 18 17 16 15 14 13 12 12 11 11 10 10 9 9 9 8 8 7
3 2 1 1 6 7 7 7 7 3 4 8 7 4 5 3 6 13 20 19 17 13 16 20 22 21 21 20 19 18 18 17 16 15 14 13 12 11 11 10 10 9 9 8 8 7 7 6 5
2 3 0 3 6 6 8 8 6 4 4 8 11 6 5 6 20 22 19 18 17 13 15 19 21 21 20 19 19 18 17 16 15 14 13 12 11 10 10 9 9 9 8 8 7 6 5 4 3
2 2 1 4 6 5 5 6 8 10 9 6 7 6 3 8 17 18 18 16 16 14 13 18 20 20 20 19 18 17 16 15 14 13 12 11 10 9 8 8 8 8 8 7 7 6 5 4 2
3 1 3 5 6 5 2 6 7 11 10 4 4 4 4 7 9 13 15 15 14 14 12 13 17 18 19 18 17 16 15 14 13 12 11 9 9 8 8 7 7 7 7 7 7 6 5 4 4
5 2 5 5 5 5 2 7 7 9 8 4 3 4 4 7 7 11 14 14 13 11 10 10 13 14 15 15 16 15 14 13 12 11 10 9 8 8 8 8 8 8 7 7 7 7 7 6 5
2 1 5 6 4 4 4 8 6 7 10 5 3 3 5 10 12 12 12 11 10 11 9 8 9 11 12 13 13 13 12 11 10 8 8 7 5 5 6 7 8 8 8 7 8 8 7 7 7
5 4 9 7 4 1 5 9 7 6 10 6 6 6 7 7 11 12 14 13 12 12 10 9 8 9 11 10 11 10 9 9 7 6 5 4 3 3 3 5 6 6 6 6 7 7 6 6 6
6 7 9 7 4 3 6 6 5 9 6 9 13 13 9 8 7 10 12 13 13 12 11 9 8 9 8 7 8 7 7 7 6 5 4 4 3 3 3 2 1 2 2 2 2 2 3 4 4
5 8 7 3 2 4 5 6 6 4 7 10 12 13 10 9 8 9 11 11 11 10 9 9 8 7 7 8 7 6 6 6 5 5 5 6 4 3 3 2 1 1 1 1 1 2 3 3 4
2 4 3 3 7 8 10 9 8 5 7 10 10 9 9 7 6 7 9 10 10 10 9 9 9 9 7 6 5 6 6 7 7 8 8 9 5 3 3 3 3 2 2 1 0 1 1 2 3
4 5 4 2 4 4 9 7 7 4 7 8 8 6 6 7 7 7 9 10 10 10 10 8 9 8 8 6 5 5 7 9 9 9 9 10 8 5 4 3 3 3 2 1 1 1 1 1 1
4 6 7 2 2 4 8 6 3 7 7 7 7 5 6 6 6 8 9 11 11 11 10 10 9 8 8 7 6 7 8 9 8 8 9 10 9 7 5 3 2 3 5 4 4 3 2 2 2
5 4 4 5 2 3 7 2 4 6 7 5 5 5 5 6 7 8 9 9 10 11 10 9 9 8 8 7 6 6 8 9 8 9 9 9 9 9 6 3 2 5 6 5 3 3 3 3 3
3 3 4 5 1 2 5 4 5 7 7 6 5 5 6 6 6 7 9 9 10 10 9 8 9 8 7 6 5 6 7 6 8 9 8 8 9 9 7 4 3 5 5 4 3 3 2 3 4
7 4 3 3 2 3 3 3 4 6 5 5 5 4 5 6 7 8 8 9 8 8 9 9 8 8 7 5 5 4 4 3 5 7 8 9 8 8 8 5 4 5 4 4 3 2 2 2 3
7 3 3 3 3 3 3 2 4 6 6 6 5 6 5 6 6 7 9 10 9 8 9 9 8 7 6 4 4 4 3 2 2 4 7 8 8 8 7 4 3 4 4 3 3 2 3 3 3
4 1 0 1 2 3 2 2 3 5 7 8 8 6 6 6 6 7 8 8 9 9 9 9 8 7 7 5 4 3 3 2 2 2 5 7 7 7 6 4 3 3 3 4 4 3 2 3 3
1 1 2 3 3 5 3 2 3 3 3 6 8 8 9 11 12 11 11 10 10 10 11 10 8 8 7 6 4 4 4 3 3 2 1 3 6 6 6 6 4 3 3 2 2 3 3 2 3
1 1 3 5 5 1 2 2 5 3 3 7 10 11 12 12 12 12 12 12 12 11 10 9 9 8 7 7 6 5 4 3 2 2 2 2 3 4 6 6 5 4 2 2 1 2 2 2 2
3 4 5 4 5 3 4 1 6 1 4 7 10 12 13 13 14 14 14 13 13 12 10 9 9 8 7 7 8 7 5 4 3 2 2 1 1 1 3 5 5 4 2 2 1 1 1 1 1
6 5 5 5 5 3 2 1 6 5 7 7 10 12 13 13 14 14 13 11 10 10 11 11 10 8 8 8 8 8 8 6 4 2 1 0 1 1 1 4 4 4 3 2 2 1 1 1 1
4 5 5 6 6 3 3 2 8 9 7 9 12 13 13 14 14 14 13 13 12 13 12 12 11 9 9 9 8 8 8 7 6 4 3 2 1 0 1 2 3 3 3 3 2 2 2 2 2
2 7 6 3 3 3 4 4 9 10 6 8 11 14 14 15 15 15 16 15 14 15 14 13 12 10 10 9 8 8 8 6 5 5 5 4 3 3 3 3 3 3 4 3 3 2 3 3 3
2 3 6 6 3 1 4 5 8 5 2 6 10 12 15 16 16 16 16 15 14 14 14 14 13 10 10 10 9 8 8 7 6 5 4 3 3 3 4 3 3 3 4 4 3 3 4 4 4
4 5 5 5 4 2 4 5 5 6 5 7 10 13 14 15 16 16 15 15 14 14 12 12 12 12 10 10 9 8 8 8 7 6 5 5 4 4 4 3 4 4 4 4 4 4 5 5 5
2 2 4 4 5 6 4 7 8 11 10 10 12 13 15 17 17 16 14 13 13 12 12 12 12 10 10 10 8 8 8 7 7 6 6 5 5 5 5 5 5 5 5 5 4 5 6 6 6
3 5 6 4 3 5 5 8 8 11 11 11 12 13 14 16 16 14 13 12 12 13 13 13 12 12 11 10 9 9 8 7 7 6 6 6 6 6 6 6 5 6 6 6 6 7 6 6 7
Wind_Direction
170 169 159 63 56 46 286 249 241 302 320 352 38 80 110 94 123 134 123 134 132 135 138 137 136 135 133 131 129 128 126 125 124 123 122 121 120 119 117 115 113 111 109 108 106 105 103 100 98
162 169 151 55 91 76 280 263 268 273 318 42 36 42 51 62 81 105 117 133 131 131 133 135 134 134 133 133 132 131 131 130 129 129 128 127 126 125 123 121 118 115 114 113 112 110 108 104 99
181 179 147 110 184 187 220 230 238 287 26 50 32 16 34 90 107 108 132 134 127 126 130 134 133 133 134 134 134 134 134 135 134 133 133 132 131 131 129 127 124 122 119 117 117 117 114 110 104
165 122 70 136 241 233 224 224 202 169 84 64 75 21 7 63 110 128 135 133 126 125 129 133 133 133 134 135 136 136 136 137 137 138 138 138 137 137 135 134 133 130 126 124 124 126 124 119 112
114 112 118 267 254 246 231 223 162 124 99 96 103 93 24 43 117 130 135 133 129 129 130 134 134 134 135 136 136 137 138 138 140 142 143 144 144 143 142 141 140 139 138 136 135 140 140 137 130
76 106 89 278 278 280 232 184 124 106 96 97 101 110 88 105 122 135 136 134 133 134 133 136 137 137 138 139 139 140 141 142 144 145 146 147 147 148 148 148 149 151 152 152 152 155 161 166 174
155 150 243 270 292 307 349 110 114 119 115 125 129 112 112 111 128 135 136 134 135 137 136 138 142 142 143 143 144 144 145 147 148 148 150 154 158 161 165 168 170 171 172 174 175 178 184 194 211
173 96 305 297 298 308 59 93 99 104 111 128 115 117 148 153 143 131 134 134 136 140 142 143 144 145 146 147 148 147 148 151 153 154 157 162 169 178 185 187 187 188 191 195 198 200 204 210 222
177 55 272 266 269 295 82 100 89 89 110 101 81 115 167 148 133 126 133 133 143 149 152 151 149 148 148 149 152 152 153 156 156 161 166 169 182 197 197 199 199 203 204 207 213 216 217 219 226
157 191 241 240 241 158 89 107 114 108 102 100 113 131 131 122 126 137 149 152 158 162 165 161 158 156 156 157 152 155 156 157 156 160 162 157 171 197 189 202 203 207 211 214 218 223 228 229 232
189 216 250 269 275 118 100 94 105 128 129 158 154 157 148 139 142 150 159 162 165 167 166 164 162 158 157 148 148 152 149 148 146 144 144 135 112 100 96 111 178 207 216 228 233 242 239 228 229
226 255 259 284 17 86 107 115 96 108 170 164 152 152 159 155 156 158 156 157 156 152 153 153 151 143 141 138 141 146 141 137 134 130 124 111 98 82 75 66 52 63 79 144 220 237 249 249 246
270 282 304 84 72 94 100 105 111 108 131 138 147 147 157 156 147 162 148 144 144 145 145 146 139 135 132 125 132 133 139 138 129 118 111 109 101 91 77 62 54 50 41 46 212 225 244 262 270
286 313 325 35 80 94 104 107 103 142 148 150 165 169 172 161 156 154 146 146 148 144 141 139 130 129 124 120 118 123 128 128 121 118 116 109 104 95 80 65 55 33 22 22 4 335 306 294 297
321 334 327 324 102 130 109 80 125 156 157 166 171 176 177 173 167 161 166 153 147 143 137 137 133 124 120 121 121 125 129 128 123 125 119 112 105 94 85 72 45 23 22 25 25 13 26 8 345
338 340 307 295 129 146 112 139 178 160 161 164 159 166 169 169 168 167 167 152 144 136 135 142 135 125 121 121 121 128 133 130 129 127 121 117 108 97 85 74 40 25 35 38 40 36 34 19 358
331 273 271 299 286 107 103 165 193 176 161 156 167 174 174 164 172 171 166 157 148 141 139 135 132 132 128 125 120 122 124 126 136 134 128 122 112 103 95 84 57 46 46 37 33 44 44 13 346
263 261 251 251 264 103 109 190 180 180 170 165 177 187 176 166 183 176 166 159 144 137 135 136 134 133 128 115 101 94 97 108 134 143 140 134 126 115 105 93 66 58 52 32 25 24 21 11 336
245 232 257 224 188 121 148 188 192 181 181 175 178 191 187 185 187 165 157 151 140 135 136 139 142 146 134 123 120 119 127 134 135 156 154 146 138 127 116 104 84 73 63 39 25 24 15 358 359
231 173 282 24 130 119 138 201 214 196 188 177 177 178 188 180 170 167 157 152 150 149 149 152 155 152 147 145 148 148 142 141 147 146 153 158 153 146 138 132 122 99 73 44 35 46 37 355 21
351 170 187 158 92 71 79 337 253 206 187 187 180 184 190 183 177 179 171 167 163 167 168 167 167 158 155 148 123 95 76 65 66 90 140 183 172 164 157 154 143 128 110 79 48 73 84 18 351
315 206 127 124 110 36 41 286 275 232 211 199 191 191 195 191 183 180 174 172 176 179 175 168 168 162 157 147 137 137 137 141 163 168 187 219 198 187 180 169 158 149 136 120 107 114 112 102 6
158 101 83 94 113 73 16 28 289 246 229 218 204 197 195 191 184 181 179 179 182 180 174 170 166 166 162 153 147 138 136 151 156 141 144 226 279 239 190 172 160 153 154 160 147 121 117 137 163
140 90 54 46 66 36 309 171 279 234 219 206 201 199 195 190 186 186 184 181 182 179 174 171 168 171 166 159 154 150 152 154 146 137 138 290 319 334 139 153 156 162 167 186 205 209 211 210 216
92 85 21 360 14 295 293 257 255 249 224 197 192 193 189 186 185 186 186 185 185 182 179 175 172 174 173 165 162 160 160 159 161 171 168 166 161 176 178 153 163 174 193 204 206 220 238 237 238
158 135 153 201 222 287 307 261 264 271 233 195 184 181 184 186 189 191 192 189 186 185 182 179 178 175 173 169 169 166 162 156 159 164 166 174 184 195 190 172 181 199 212 219 209 217 235 232 242
150 164 163 136 127 116 276 282 301 287 207 186 179 178 187 189 191 194 194 191 187 185 184 182 178 175 176 175 171 172 169 165 171 177 173 177 187 188 178 182 196 218 227 230 223 231 245 245 245
158 153 97 113 149 199 271 268 246 251 221 204 194 191 193 190 192 195 193 191 189 186 182 176 173 176 177 175 177 178 177 176 176 176 184 191 200 197 194 211 220 232 238 236 227 238 246 246 252
137 107 115 127 154 157 216 256 226 217 211 203 205 199 194 191 193 194 192 189 181 175 172 172 172 170 174 176 175 169 178 181 179 183 195 197 202 203 209 219 225 231 239 240 234 242 247 246 255
183 181 150 149 214 180 188 258 251 210 210 202 209 206 196 194 192 189 183 175 172 172 172 174 175 176 179 176 173 177 181 180 183 194 203 201 205 212 215 219 223 232 236 235 233 244 248 241 246
Height
1533 1534 1535 1536 1538 1544 1545 1535 1527 1524 1522 1519 1514 1513 1514 1515 1520 1529 1527 1529 1532 1535 1539 1542 1544 1546 1548 1549 1551 1552 1553 1554 1555 1556 1557 1558 1558 1559 1560 1560 1561 1561 1562 1562 1563 1563 1564 1564 1564
1533 1535 1537 1537 1542 1551 1544 1530 1526 1523 1524 1518 1516 1514 1515 1518 1519 1522 1526 1530 1533 1536 1539 1543 1545 1547 1548 1550 1551 1552 1553 1554 1555 1556 1557 1558 1559 1560 1560 1561 1561 1562 1563 1563 1564 1564 1565 1565 1565
1533 1535 1537 1538 1542 1545 1537 1524 1522 1522 1522 1518 1520 1519 1519 1522 1524 1525 1528 1532 1535 1537 1541 1543 1546 1547 1549 1551 1552 1553 1554 1555 1556 1557 1558 1558 1559 1560 1561 1561 1562 1563 1563 1564 1565 1565 1566 1566 1567
1533 1536 1537 1541 1540 1529 1521 1515 1516 1519 1521 1518 1520 1523 1524 1526 1526 1528 1531 1533 1536 1538 1541 1544 1546 1548 1550 1551 1552 1553 1554 1555 1556 1557 1558 1559 1559 1560 1561 1562 1562 1563 1564 1565 1565 1566 1567 1567 1568
1533 1534 1539 1542 1533 1520 1513 1510 1513 1517 1520 1521 1519 1525 1528 1528 1528 1531 1533 1536 1537 1539 1542 1545 1547 1549 1550 1552 1553 1554 1555 1555 1556 1557 1558 1559 1560 1561 1561 1562 1563 1564 1564 1565 1566 1567 1567 1568 1568
1532 1533 1542 1543 1529 1515 1511 1510 1514 1518 1522 1524 1525 1526 1530 1531 1532 1534 1536 1538 1539 1541 1543 1545 1547 1549 1551 1552 1553 1554 1555 1556 1557 1557 1558 1559 1560 1561 1561 1562 1563 1564 1564 1565 1566 1567 1567 1568 1569
1532 1533 1538 1533 1526 1517 1511 1512 1516 1518 1520 1522 1523 1528 1531 1533 1534 1536 1538 1539 1541 1542 1544 1546 1548 1550 1551 1553 1554 1554 1555 1556 1557 1558 1559 1559 1560 1561 1561 1562 1563 1563 1564 1565 1566 1566 1567 1568 1568
1528 1531 1534 1531 1525 1519 1513 1515 1519 1520 1522 1524 1524 1527 1529 1533 1536 1537 1539 1541 1542 1544 1545 1547 1548 1550 1551 1552 1554 1554 1555 1557 1557 1558 1559 1559 1560 1560 1561 1562 1562 1563 1564 1564 1565 1565 1566 1567 1568
1527 1534 1538 1529 1522 1517 1513 1516 1521 1523 1522 1523 1523 1525 1528 1530 1534 1537 1539 1542 1544 1545 1546 1548 1549 1550 1551 1552 1553 1555 1556 1557 1558 1558 1559 1559 1560 1560 1560 1561 1561 1562 1563 1563 1564 1564 1565 1565 1566
1524 1533 1526 1515 1512 1513 1513 1515 1520 1525 1524 1524 1524 1526 1528 1531 1533 1535 1538 1541 1543 1545 1547 1548 1549 1550 1551 1552 1554 1554 1556 1557 1557 1558 1559 1559 1559 1559 1560 1560 1560 1561 1561 1562 1562 1563 1563 1564 1565
1518 1521 1513 1510 1509 1509 1511 1516 1519 1523 1524 1522 1521 1523 1527 1529 1532 1534 1538 1540 1543 1545 1547 1548 1549 1550 1551 1552 1553 1554 1555 1556 1557 1558 1558 1558 1559 1559 1559 1559 1559 1560 1560 1560 1560 1561 1561 1562 1562
1514 1511 1509 1509 1506 1507 1510 1514 1517 1518 1520 1519 1519 1522 1526 1527 1531 1534 1537 1539 1542 1544 1546 1547 1549 1549 1550 1552 1553 1554 1555 1556 1556 1557 1557 1558 1558 1558 1558 1558 1558 1558 1558 1558 1559 1559 1559 1560 1560
1510 1509 1507 1507 1506 1507 1509 1513 1515 1519 1519 1521 1523 1524 1526 1529 1532 1533 1536 1539 1541 1543 1545 1547 1548 1549 1550 1551 1552 1553 1554 1555 1555 1556 1556 1557 1557 1557 1557 1556 1556 1556 1556 1556 1557 1557 1557 1558 1558
1508 1507 1506 1506 1505 1508 1510 1514 1516 1520 1520 1522 1523 1524 1525 1528 1529 1531 1534 1537 1540 1543 1545 1547 1548 1549 1550 1551 1552 1553 1554 1554 1555 1555 1556 1556 1556 1555 1555 1555 1555 1555 1555 1555 1555 1554 1555 1555 1555
1508 1508 1506 1505 1505 1509 1509 1517 1518 1519 1521 1522 1522 1523 1525 1527 1528 1530 1533 1536 1539 1542 1544 1546 1548 1549 1550 1551 1552 1553 1554 1554 1554 1555 1555 1555 1555 1554 1554 1554 1554 1553 1553 1553 1553 1552 1552 1552 1552
1509 1513 1517 1506 1504 1505 1511 1523 1519 1519 1521 1521 1522 1522 1523 1525 1528 1531 1534 1536 1538 1541 1543 1545 1547 1548 1549 1550 1552 1552 1553 1554 1554 1554 1554 1554 1554 1554 1553 1552 1552 1552 1551 1551 1551 1550 1550 1550 1550
1517 1523 1519 1509 1503 1504 1510 1518 1516 1517 1519 1521 1521 1522 1523 1526 1529 1532 1534 1536 1538 1540 1542 1544 1546 1547 1549 1550 1551 1552 1553 1553 1553 1553 1554 1554 1553 1552 1552 1551 1550 1550 1550 1549 1549 1548 1548 1547 1547
1523 1519 1515 1513 1505 1505 1512 1515 1514 1516 1517 1519 1520 1521 1524 1526 1528 1531 1534 1536 1538 1539 1542 1544 1545 1547 1548 1549 1551 1551 1552 1552 1553 1553 1553 1553 1552 1551 1551 1550 1549 1548 1548 1547 1547 1546 1546 1546 1545
1507 1510 1511 1508 1503 1507 1512 1514 1513 1515 1518 1520 1520 1521 1522 1526 1528 1531 1533 1535 1537 1539 1541 1542 1545 1546 1548 1549 1550 1551 1551 1552 1552 1552 1552 1552 1551 1550 1550 1548 1547 1547 1546 1545 1545 1544 1544 1544 1543
1503 1508 1510 1507 1503 1509 1514 1514 1512 1513 1515 1517 1518 1520 1522 1525 1528 1530 1533 1534 1536 1538 1540 1542 1544 1546 1547 1548 1549 1550 1550 1551 1551 1551 1551 1550 1550 1549 1548 1547 1546 1545 1544 1543 1543 1543 1542 1542 1542
1503 1507 1507 1509 1509 1511 1516 1520 1515 1512 1513 1515 1516 1518 1520 1522 1525 1528 1531 1533 1535 1537 1539 1541 1543 1545 1546 1547 1548 1549 1549 1549 1549 1549 1549 1549 1548 1547 1547 1546 1545 1544 1543 1542 1542 1541 1541 1541 1541
1508 1500 1500 1505 1515 1526 1522 1533 1518 1512 1512 1512 1514 1516 1518 1521 1524 1526 1528 1531 1533 1536 1538 1540 1542 1543 1544 1545 1546 1547 1547 1547 1547 1547 1547 1547 1546 1546 1545 1544 1543 1543 1542 1541 1541 1540 1540 1539 1539
1501 1499 1503 1508 1517 1527 1526 1532 1524 1512 1513 1511 1510 1512 1515 1518 1521 1523 1526 1528 1531 1534 1536 1538 1540 1541 1542 1543 1544 1545 1545 1545 1545 1545 1545 1545 1544 1544 1543 1542 1542 1541 1541 1540 1539 1539 1538 1538 1537
1494 1503 1510 1517 1525 1539 1532 1533 1528 1515 1508 1506 1507 1508 1511 1514 1518 1521 1524 1527 1529 1532 1534 1536 1538 1539 1540 1541 1542 1542 1543 1543 1543 1543 1542 1542 1542 1541 1541 1541 1540 1540 1539 1538 1538 1537 1537 1536 1536
1496 1515 1535 1537 1546 1544 1529 1528 1522 1500 1497 1499 1501 1504 1508 1511 1515 1519 1522 1524 1526 1529 1531 1533 1535 1536 1537 1539 1539 1540 1540 1540 1540 1540 1540 1539 1539 1539 1539 1539 1538 1538 1537 1537 1536 1535 1535 1534 1534
1499 1510 1534 1545 1549 1543 1530 1529 1510 1491 1491 1493 1496 1500 1505 1508 1511 1514 1517 1520 1522 1525 1527 1530 1532 1533 1535 1536 1536 1537 1537 1537 1537 1537 1537 1537 1537 1537 1536 1536 1536 1536 1535 1534 1534 1533 1533 1532 1532
1498 1507 1509 1528 1536 1544 1535 1521 1504 1489 1490 1492 1494 1498 1501 1504 1507 1510 1514 1516 1518 1521 1523 1526 1528 1530 1532 1533 1534 1534 1535 1535 1535 1535 1534 1534 1534 1534 1534 1534 1533 1533 1532 1532 1531 1531 1530 1530 1529
1492 1498 1513 1526 1541 1546 1536 1526 1518 1497 1493 1492 1492 1494 1496 1500 1503 1506 1509 1512 1515 1517 1520 1523 1525 1527 1528 1530 1531 1531 1532 1532 1532 1532 1532 1532 1532 1532 1532 1531 1531 1530 1530 1529 1528 1528 1527 1527 1526
1495 1500 1508 1521 1526 1539 1543 1527 1493 1491 1488 1488 1488 1489 1491 1494 1498 1501 1504 1508 1511 1514 1517 1520 1522 1524 1525 1527 1527 1528 1529 1529 1529 1529 1529 1529 1529 1529 1529 1528 1528 1527 1527 1526 1525 1525 1524 1523 1523
1489 1494 1504 1520 1523 1524 1530 1518 1479 1479 1480 1482 1484 1486 1487 1490 1493 1497 1500 1504 1508 1511 1513 1516 1518 1520 1522 1523 1525 1525 1526 1526 1526 1526 1526 1526 1526 1526 1526 1525 1524 1524 1523 1523 1522 1521 1520 1520 1519